QPF
0.06 0.04 0.03 0.03 0.03 0.03 0.03 0.03 0.03 0.04 0.05 0.06 0.07 0.05 0.03 0.02 0.02 0.02 0.01 0.01 0.01 0.01 0.01 0.02 0.02 0.01 0.01 0.01 0.02 0.04 0.05 0.05 0.04 0.02 0.02 0.01 0.01 0.02
0.07 0.05 0.03 0.02 0.02 0.02 0.03 0.03 0.03 0.03 0.03 0.03 0.04 0.05 0.05 0.05 0.04 0.03 0.01 0.01 0.01 0.01 0.01 0.02 0.02 0.02 0.01 0.01 0.01 0.02 0.04 0.05 0.03 0.03 0.02 0.02 0.02 0.02
0.09 0.07 0.04 0.03 0.02 0.01 0.01 0.02 0.02 0.03 0.03 0.03 0.02 0.03 0.04 0.05 0.05 0.04 0.03 0.02 0.01 0.01 0.02 0.02 0.02 0.02 0.01 0.01 0.01 0.01 0.02 0.04 0.05 0.03 0.02 0.02 0.02 0.02
0.08 0.09 0.07 0.04 0.02 0.01 0.01 0.01 0.02 0.02 0.02 0.02 0.02 0.02 0.03 0.04 0.04 0.04 0.04 0.04 0.03 0.03 0.03 0.03 0.03 0.03 0.02 0.01 0.01 0.01 0.02 0.02 0.04 0.06 0.04 0.03 0.03 0.02
0.06 0.07 0.08 0.06 0.04 0.02 0.01 0.01 0.01 0.02 0.02 0.02 0.02 0.02 0.03 0.03 0.04 0.04 0.04 0.04 0.04 0.04 0.04 0.04 0.04 0.04 0.03 0.02 0.02 0.02 0.02 0.02 0.03 0.03 0.06 0.04 0.03 0.03
0.06 0.06 0.06 0.06 0.05 0.03 0.02 0.01 0.01 0.01 0.01 0.02 0.02 0.02 0.03 0.03 0.04 0.04 0.04 0.04 0.04 0.04 0.05 0.06 0.05 0.05 0.04 0.03 0.03 0.02 0.02 0.03 0.04 0.03 0.03 0.05 0.04 0.04
0.06 0.06 0.06 0.07 0.05 0.04 0.03 0.02 0.02 0.02 0.02 0.02 0.02 0.02 0.03 0.04 0.04 0.03 0.03 0.03 0.04 0.04 0.05 0.05 0.06 0.06 0.05 0.04 0.04 0.03 0.03 0.03 0.03 0.04 0.03 0.03 0.04 0.04
0.05 0.05 0.06 0.07 0.06 0.05 0.04 0.03 0.03 0.03 0.02 0.02 0.02 0.02 0.02 0.02 0.03 0.03 0.03 0.04 0.05 0.04 0.05 0.06 0.05 0.05 0.05 0.04 0.04 0.04 0.03 0.03 0.03 0.02 0.03 0.03 0.02 0.03
0.05 0.04 0.05 0.06 0.06 0.05 0.05 0.05 0.04 0.03 0.03 0.03 0.03 0.02 0.02 0.02 0.02 0.04 0.04 0.04 0.03 0.04 0.06 0.08 0.06 0.06 0.05 0.04 0.04 0.04 0.03 0.03 0.03 0.03 0.03 0.04 0.03 0.02
0.05 0.04 0.03 0.04 0.04 0.05 0.05 0.06 0.05 0.04 0.04 0.03 0.02 0.02 0.02 0.02 0.02 0.03 0.04 0.05 0.04 0.04 0.06 0.09 0.07 0.06 0.05 0.05 0.04 0.04 0.04 0.04 0.04 0.03 0.04 0.04 0.04 0.03
0.06 0.06 0.04 0.03 0.03 0.04 0.05 0.05 0.06 0.05 0.04 0.03 0.03 0.03 0.03 0.04 0.04 0.04 0.04 0.05 0.05 0.05 0.05 0.06 0.07 0.06 0.06 0.06 0.06 0.05 0.04 0.04 0.04 0.04 0.04 0.04 0.05 0.04
0.06 0.06 0.06 0.05 0.04 0.04 0.05 0.05 0.06 0.05 0.04 0.04 0.03 0.03 0.03 0.03 0.03 0.03 0.03 0.03 0.03 0.04 0.04 0.04 0.05 0.05 0.07 0.07 0.06 0.06 0.06 0.05 0.05 0.05 0.05 0.05 0.06 0.05
0.08 0.07 0.07 0.07 0.06 0.05 0.06 0.06 0.05 0.05 0.04 0.04 0.04 0.03 0.03 0.03 0.03 0.02 0.02 0.02 0.02 0.02 0.02 0.02 0.03 0.04 0.05 0.06 0.06 0.05 0.05 0.05 0.05 0.05 0.05 0.06 0.06 0.06
0.09 0.08 0.08 0.08 0.08 0.07 0.06 0.07 0.06 0.06 0.06 0.06 0.05 0.04 0.04 0.03 0.03 0.03 0.02 0.01 0.01 0.02 0.02 0.02 0.02 0.03 0.03 0.04 0.04 0.04 0.04 0.05 0.05 0.05 0.05 0.05 0.06 0.06
0.09 0.09 0.08 0.08 0.08 0.07 0.07 0.07 0.08 0.07 0.06 0.06 0.05 0.04 0.04 0.03 0.03 0.03 0.03 0.02 0.02 0.02 0.03 0.03 0.03 0.02 0.02 0.02 0.03 0.03 0.03 0.04 0.04 0.05 0.05 0.05 0.05 0.05
0.08 0.09 0.08 0.07 0.07 0.07 0.07 0.07 0.07 0.07 0.06 0.05 0.04 0.04 0.04 0.04 0.03 0.03 0.03 0.04 0.04 0.04 0.04 0.05 0.04 0.04 0.04 0.03 0.02 0.02 0.02 0.03 0.03 0.03 0.04 0.04 0.05 0.05
0.08 0.08 0.08 0.07 0.07 0.07 0.07 0.06 0.07 0.07 0.06 0.05 0.04 0.04 0.05 0.05 0.04 0.04 0.04 0.04 0.04 0.04 0.05 0.06 0.06 0.06 0.06 0.04 0.03 0.03 0.02 0.02 0.02 0.03 0.03 0.03 0.04 0.05
0.09 0.10 0.08 0.07 0.07 0.07 0.07 0.06 0.05 0.05 0.05 0.04 0.04 0.04 0.05 0.05 0.05 0.04 0.04 0.04 0.04 0.03 0.03 0.04 0.05 0.06 0.07 0.06 0.05 0.04 0.03 0.02 0.02 0.03 0.03 0.03 0.03 0.04
0.09 0.09 0.08 0.06 0.06 0.06 0.06 0.05 0.05 0.04 0.04 0.04 0.04 0.04 0.04 0.05 0.05 0.05 0.05 0.05 0.04 0.04 0.03 0.04 0.04 0.04 0.05 0.04 0.04 0.03 0.03 0.03 0.03 0.03 0.04 0.03 0.03 0.03
0.10 0.09 0.07 0.06 0.06 0.06 0.06 0.06 0.05 0.05 0.04 0.03 0.03 0.03 0.04 0.04 0.05 0.04 0.05 0.05 0.05 0.05 0.05 0.04 0.04 0.04 0.04 0.03 0.02 0.01 0.01 0.02 0.03 0.03 0.04 0.04 0.04 0.04
0.10 0.10 0.08 0.07 0.06 0.06 0.05 0.05 0.05 0.05 0.04 0.04 0.04 0.03 0.03 0.04 0.04 0.04 0.04 0.05 0.06 0.05 0.05 0.05 0.05 0.04 0.04 0.04 0.03 0.02 0.01 0.01 0.02 0.03 0.04 0.05 0.06 0.05
0.10 0.09 0.09 0.08 0.07 0.06 0.06 0.05 0.05 0.05 0.05 0.05 0.05 0.05 0.05 0.04 0.04 0.05 0.05 0.05 0.05 0.05 0.05 0.05 0.05 0.05 0.05 0.05 0.04 0.03 0.03 0.03 0.03 0.04 0.04 0.05 0.06 0.06
0.10 0.09 0.09 0.09 0.09 0.08 0.08 0.07 0.07 0.06 0.06 0.06 0.06 0.06 0.06 0.06 0.05 0.05 0.05 0.05 0.05 0.05 0.05 0.06 0.06 0.06 0.06 0.05 0.05 0.04 0.04 0.05 0.05 0.05 0.05 0.04 0.04 0.04
MSLP
1022.13 1022.05 1021.95 1021.90 1021.92 1022.03 1022.25 1022.55 1022.93 1023.34 1023.75 1024.13 1024.46 1024.71 1024.89 1025.01 1025.07 1025.10 1025.11 1025.11 1025.11 1025.12 1025.15 1025.19 1025.25 1025.33 1025.41 1025.50 1025.58 1025.64 1025.67 1025.66 1025.61 1025.51 1025.36 1025.17 1024.95 1024.72
1022.14 1022.13 1022.08 1022.05 1022.06 1022.14 1022.31 1022.56 1022.88 1023.25 1023.64 1024.02 1024.36 1024.64 1024.86 1025.02 1025.13 1025.20 1025.25 1025.28 1025.31 1025.34 1025.39 1025.46 1025.53 1025.62 1025.71 1025.80 1025.87 1025.91 1025.93 1025.90 1025.82 1025.69 1025.52 1025.32 1025.09 1024.85
1021.95 1022.01 1022.03 1022.04 1022.07 1022.15 1022.31 1022.54 1022.83 1023.18 1023.56 1023.94 1024.30 1024.61 1024.87 1025.07 1025.22 1025.32 1025.39 1025.45 1025.50 1025.55 1025.61 1025.68 1025.77 1025.86 1025.94 1026.02 1026.08 1026.10 1026.09 1026.03 1025.92 1025.77 1025.58 1025.36 1025.13 1024.89
1021.52 1021.66 1021.75 1021.82 1021.89 1022.00 1022.17 1022.40 1022.70 1023.06 1023.45 1023.85 1024.23 1024.58 1024.88 1025.12 1025.30 1025.44 1025.53 1025.60 1025.66 1025.72 1025.79 1025.86 1025.94 1026.02 1026.10 1026.16 1026.20 1026.20 1026.15 1026.07 1025.94 1025.76 1025.56 1025.33 1025.09 1024.85
1020.84 1021.04 1021.20 1021.34 1021.47 1021.63 1021.84 1022.11 1022.44 1022.82 1023.24 1023.67 1024.10 1024.49 1024.83 1025.11 1025.33 1025.50 1025.61 1025.70 1025.76 1025.82 1025.88 1025.95 1026.02 1026.09 1026.15 1026.19 1026.21 1026.18 1026.11 1026.00 1025.85 1025.66 1025.44 1025.21 1024.98 1024.75
1019.95 1020.20 1020.42 1020.62 1020.82 1021.04 1021.31 1021.62 1022.00 1022.43 1022.89 1023.37 1023.84 1024.28 1024.66 1024.99 1025.25 1025.44 1025.58 1025.68 1025.75 1025.81 1025.86 1025.92 1025.98 1026.03 1026.08 1026.10 1026.09 1026.05 1025.96 1025.83 1025.66 1025.46 1025.25 1025.02 1024.79 1024.57
1018.91 1019.19 1019.45 1019.71 1019.98 1020.26 1020.59 1020.96 1021.39 1021.86 1022.37 1022.89 1023.41 1023.89 1024.32 1024.69 1024.98 1025.21 1025.37 1025.49 1025.57 1025.63 1025.69 1025.74 1025.79 1025.84 1025.87 1025.87 1025.85 1025.79 1025.69 1025.55 1025.37 1025.17 1024.96 1024.74 1024.52 1024.31
1017.78 1018.07 1018.37 1018.68 1019.00 1019.34 1019.73 1020.15 1020.62 1021.14 1021.68 1022.24 1022.80 1023.32 1023.79 1024.19 1024.52 1024.78 1024.97 1025.11 1025.21 1025.29 1025.35 1025.41 1025.46 1025.50 1025.52 1025.52 1025.49 1025.42 1025.31 1025.16 1024.98 1024.79 1024.58 1024.36 1024.16 1023.96
1016.59 1016.89 1017.22 1017.57 1017.95 1018.35 1018.78 1019.24 1019.75 1020.29 1020.86 1021.44 1022.02 1022.57 1023.07 1023.50 1023.87 1024.16 1024.39 1024.56 1024.69 1024.79 1024.87 1024.94 1025.00 1025.04 1025.07 1025.07 1025.03 1024.95 1024.84 1024.69 1024.51 1024.32 1024.11 1023.91 1023.71 1023.53
1015.38 1015.69 1016.05 1016.45 1016.87 1017.31 1017.78 1018.28 1018.81 1019.37 1019.95 1020.54 1021.13 1021.69 1022.21 1022.67 1023.07 1023.40 1023.66 1023.87 1024.04 1024.18 1024.28 1024.38 1024.46 1024.51 1024.54 1024.55 1024.51 1024.43 1024.31 1024.16 1023.98 1023.79 1023.58 1023.39 1023.19 1023.01
1014.16 1014.49 1014.88 1015.32 1015.78 1016.27 1016.78 1017.30 1017.85 1018.42 1019.00 1019.59 1020.18 1020.75 1021.29 1021.77 1022.20 1022.57 1022.88 1023.13 1023.34 1023.51 1023.66 1023.78 1023.88 1023.96 1024.00 1024.01 1023.97 1023.89 1023.76 1023.61 1023.42 1023.22 1023.02 1022.81 1022.62 1022.44
1012.91 1013.27 1013.71 1014.19 1014.70 1015.24 1015.78 1016.33 1016.90 1017.48 1018.06 1018.66 1019.25 1019.83 1020.38 1020.89 1021.34 1021.75 1022.10 1022.40 1022.65 1022.87 1023.05 1023.21 1023.33 1023.42 1023.47 1023.47 1023.43 1023.35 1023.21 1023.05 1022.85 1022.64 1022.42 1022.22 1022.02 1021.84
1011.66 1012.06 1012.54 1013.07 1013.63 1014.22 1014.80 1015.39 1015.98 1016.58 1017.18 1017.79 1018.39 1018.98 1019.55 1020.08 1020.57 1021.01 1021.39 1021.74 1022.03 1022.28 1022.50 1022.67 1022.82 1022.92 1022.97 1022.97 1022.92 1022.82 1022.68 1022.50 1022.28 1022.06 1021.83 1021.61 1021.40 1021.21
1010.42 1010.86 1011.38 1011.97 1012.59 1013.22 1013.86 1014.50 1015.13 1015.76 1016.39 1017.02 1017.65 1018.26 1018.85 1019.40 1019.92 1020.39 1020.81 1021.18 1021.50 1021.78 1022.02 1022.21 1022.36 1022.46 1022.51 1022.50 1022.44 1022.32 1022.16 1021.96 1021.73 1021.48 1021.24 1021.00 1020.77 1020.56
1009.24 1009.72 1010.29 1010.93 1011.61 1012.30 1012.99 1013.68 1014.36 1015.04 1015.72 1016.38 1017.04 1017.68 1018.30 1018.88 1019.42 1019.91 1020.35 1020.74 1021.08 1021.37 1021.61 1021.81 1021.95 1022.04 1022.08 1022.06 1021.98 1021.84 1021.65 1021.43 1021.17 1020.90 1020.64 1020.37 1020.13 1019.89
1008.20 1008.72 1009.34 1010.02 1010.74 1011.48 1012.23 1012.98 1013.72 1014.46 1015.18 1015.89 1016.59 1017.26 1017.90 1018.51 1019.06 1019.56 1020.01 1020.41 1020.74 1021.03 1021.26 1021.45 1021.58 1021.65 1021.67 1021.63 1021.52 1021.36 1021.15 1020.90 1020.62 1020.32 1020.02 1019.74 1019.46 1019.19
1007.41 1007.96 1008.60 1009.31 1010.07 1010.85 1011.65 1012.45 1013.24 1014.03 1014.81 1015.56 1016.30 1017.00 1017.66 1018.27 1018.83 1019.33 1019.77 1020.15 1020.48 1020.74 1020.96 1021.12 1021.23 1021.28 1021.27 1021.20 1021.06 1020.87 1020.63 1020.35 1020.05 1019.72 1019.39 1019.07 1018.75 1018.45
1006.94 1007.52 1008.18 1008.90 1009.68 1010.48 1011.31 1012.14 1012.97 1013.80 1014.61 1015.40 1016.16 1016.88 1017.54 1018.15 1018.70 1019.18 1019.60 1019.96 1020.25 1020.49 1020.68 1020.81 1020.89 1020.91 1020.87 1020.76 1020.60 1020.38 1020.11 1019.79 1019.45 1019.09 1018.72 1018.35 1017.99 1017.64
1006.87 1007.46 1008.12 1008.84 1009.61 1010.42 1011.25 1012.09 1012.94 1013.78 1014.60 1015.40 1016.16 1016.87 1017.53 1018.11 1018.63 1019.08 1019.46 1019.78 1020.04 1020.25 1020.40 1020.50 1020.54 1020.53 1020.46 1020.32 1020.12 1019.86 1019.55 1019.20 1018.81 1018.41 1018.00 1017.58 1017.18 1016.77
1007.23 1007.81 1008.46 1009.15 1009.90 1010.67 1011.48 1012.30 1013.13 1013.95 1014.76 1015.54 1016.27 1016.95 1017.57 1018.12 1018.59 1019.00 1019.34 1019.61 1019.83 1020.00 1020.11 1020.18 1020.19 1020.14 1020.03 1019.85 1019.61 1019.31 1018.95 1018.55 1018.12 1017.67 1017.21 1016.74 1016.28 1015.83
1007.99 1008.56 1009.17 1009.82 1010.51 1011.23 1011.98 1012.75 1013.52 1014.30 1015.06 1015.78 1016.46 1017.09 1017.65 1018.14 1018.55 1018.90 1019.19 1019.42 1019.59 1019.72 1019.80 1019.82 1019.80 1019.71 1019.56 1019.34 1019.05 1018.70 1018.29 1017.84 1017.35 1016.85 1016.34 1015.83 1015.32 1014.82
1009.09 1009.62 1010.18 1010.77 1011.38 1012.02 1012.69 1013.37 1014.06 1014.75 1015.43 1016.08 1016.68 1017.22 1017.71 1018.13 1018.48 1018.77 1019.00 1019.18 1019.30 1019.39 1019.43 1019.42 1019.35 1019.22 1019.03 1018.76 1018.42 1018.01 1017.54 1017.03 1016.49 1015.94 1015.38 1014.83 1014.29 1013.75
1010.43 1010.90 1011.39 1011.90 1012.41 1012.95 1013.51 1014.08 1014.66 1015.25 1015.82 1016.36 1016.87 1017.32 1017.72 1018.06 1018.34 1018.56 1018.73 1018.86 1018.94 1018.98 1018.98 1018.93 1018.82 1018.64 1018.40 1018.08 1017.68 1017.22 1016.69 1016.13 1015.54 1014.94 1014.35 1013.77 1013.20 1012.65
Thickness
5525 5528 5530 5532 5535 5538 5540 5542 5543 5545 5549 5550 5552 5554 5556 5557 5559 5560 5562 5563 5564 5565 5565 5566 5566 5566 5566 5566 5566 5565 5564 5563 5562 5561 5560 5558 5556 5554
5515 5518 5520 5522 5525 5527 5530 5532 5534 5536 5539 5542 5543 5546 5547 5548 5549 5550 5552 5553 5554 5555 5556 5557 5557 5558 5558 5559 5558 5558 5557 5556 5555 5554 5552 5551 5549 5547
5505 5508 5511 5514 5516 5517 5519 5521 5523 5525 5527 5530 5532 5534 5536 5538 5539 5540 5541 5543 5544 5546 5547 5548 5548 5549 5550 5550 5550 5549 5549 5549 5547 5546 5544 5543 5541 5540
5496 5499 5502 5505 5507 5508 5510 5512 5513 5515 5517 5519 5520 5522 5525 5527 5529 5530 5531 5533 5535 5536 5537 5538 5538 5539 5540 5541 5541 5540 5540 5540 5539 5537 5536 5535 5533 5531
5488 5490 5493 5495 5498 5499 5501 5503 5504 5505 5507 5508 5511 5512 5514 5516 5518 5519 5521 5522 5524 5525 5526 5527 5528 5529 5530 5531 5531 5531 5531 5531 5530 5529 5527 5526 5525 5523
5480 5482 5484 5486 5489 5491 5492 5493 5494 5495 5496 5498 5500 5502 5504 5506 5507 5509 5510 5511 5513 5515 5515 5516 5517 5518 5520 5521 5522 5522 5522 5521 5521 5520 5518 5517 5516 5515
5471 5473 5475 5477 5480 5482 5484 5485 5485 5486 5487 5489 5491 5492 5494 5495 5498 5500 5501 5501 5502 5504 5505 5506 5507 5509 5509 5510 5511 5512 5512 5511 5511 5511 5509 5508 5507 5505
5462 5464 5466 5467 5469 5472 5474 5477 5478 5479 5480 5481 5482 5485 5488 5489 5489 5490 5490 5490 5492 5495 5494 5496 5496 5498 5499 5500 5501 5502 5502 5502 5501 5500 5500 5499 5497 5496
5453 5454 5456 5458 5460 5461 5463 5465 5467 5470 5473 5474 5475 5477 5479 5481 5480 5480 5480 5482 5484 5485 5483 5485 5486 5487 5489 5490 5491 5491 5491 5491 5490 5490 5489 5488 5487 5486
5444 5446 5447 5449 5451 5452 5454 5454 5457 5460 5464 5465 5468 5470 5469 5469 5471 5472 5472 5470 5471 5471 5473 5473 5475 5476 5478 5480 5480 5480 5480 5480 5480 5479 5479 5478 5477 5476
5434 5436 5438 5440 5443 5444 5445 5446 5448 5450 5452 5454 5456 5457 5458 5459 5459 5459 5458 5459 5460 5460 5461 5462 5464 5464 5466 5469 5469 5469 5469 5469 5469 5469 5468 5467 5466 5465
5425 5427 5430 5433 5435 5435 5436 5438 5439 5442 5442 5442 5443 5444 5446 5447 5448 5449 5451 5450 5450 5450 5451 5450 5451 5450 5452 5457 5457 5457 5457 5458 5457 5457 5457 5456 5454 5453
5417 5420 5423 5425 5427 5427 5429 5431 5434 5433 5432 5431 5431 5431 5433 5435 5437 5438 5440 5441 5441 5441 5441 5439 5439 5438 5439 5442 5445 5445 5445 5446 5446 5445 5445 5444 5443 5441
5409 5412 5414 5416 5418 5419 5420 5422 5423 5421 5420 5420 5420 5421 5422 5424 5426 5427 5428 5429 5431 5431 5430 5429 5428 5428 5428 5429 5431 5433 5433 5433 5433 5433 5433 5432 5430 5429
5399 5403 5405 5406 5408 5408 5409 5410 5411 5410 5410 5410 5411 5412 5413 5414 5414 5414 5415 5416 5417 5417 5417 5418 5419 5418 5418 5419 5420 5421 5421 5421 5420 5420 5420 5419 5418 5417
5387 5391 5393 5394 5395 5396 5397 5397 5398 5399 5401 5402 5402 5401 5401 5401 5402 5403 5403 5404 5403 5404 5404 5405 5407 5407 5407 5408 5407 5409 5408 5408 5409 5407 5407 5407 5406 5406
5377 5377 5378 5379 5380 5382 5383 5384 5385 5386 5388 5389 5390 5390 5390 5390 5391 5391 5392 5392 5392 5392 5392 5391 5392 5394 5395 5396 5395 5396 5396 5396 5396 5395 5394 5395 5396 5395
5367 5367 5367 5368 5370 5372 5373 5373 5373 5374 5376 5377 5378 5379 5379 5379 5380 5380 5380 5380 5381 5381 5381 5379 5379 5379 5380 5382 5384 5384 5384 5384 5383 5382 5382 5382 5386 5386
5357 5357 5358 5358 5360 5361 5362 5363 5363 5363 5364 5365 5366 5367 5367 5368 5368 5369 5368 5368 5369 5370 5369 5368 5368 5368 5369 5372 5373 5371 5370 5371 5370 5370 5370 5369 5372 5375
5345 5347 5348 5349 5350 5351 5352 5352 5352 5352 5352 5353 5355 5355 5356 5357 5357 5357 5357 5357 5358 5358 5357 5357 5357 5358 5360 5360 5359 5359 5358 5357 5357 5357 5357 5357 5357 5360
5332 5334 5336 5338 5339 5340 5341 5342 5342 5342 5343 5343 5344 5345 5345 5346 5346 5347 5347 5347 5347 5348 5348 5349 5348 5347 5345 5344 5344 5346 5346 5345 5345 5345 5344 5343 5344 5347
5320 5323 5326 5327 5329 5330 5331 5331 5332 5332 5332 5332 5333 5335 5335 5336 5337 5337 5338 5337 5337 5337 5337 5337 5336 5335 5334 5333 5334 5334 5334 5334 5333 5333 5333 5333 5332 5335
5308 5311 5314 5316 5318 5319 5320 5320 5321 5321 5322 5323 5324 5325 5326 5326 5327 5327 5328 5328 5327 5326 5325 5325 5324 5323 5323 5322 5322 5321 5321 5321 5322 5322 5324 5324 5324 5325